{"data":{"norad_id":67884,"epoch":"2026-05-24T18:25:32.970144Z","epoch_age_seconds":95395,"freshness":"FRESH","line1":"1 67884U 26035F   26144.76774271  .00018050  00000+0  56001-3 0  9995","line2":"2 67884  97.2846  78.2430 0001707  92.7354 267.4085 15.33448626 15640","mean_motion":15.33448626,"eccentricity":0.0001707,"inclination_deg":97.2846,"raan_deg":78.243,"arg_perigee_deg":92.7354,"mean_anomaly_deg":267.4085,"bstar":0.00056001,"rev_number":1564,"period_min":93.905982605771,"perigee_km":464.36417171029,"apogee_km":466.7006004387,"semimajor_km":6843.6693860745,"source":"CELESTRAK","updated_at":"2026-05-25T13:38:21.732597Z"}}